Location: Hermaringen
(48.5952°N, 10.2585°E)
Time: 10:01:15
(UTC+00:00)

A-11 Canister half - Pass Details

Date: 24 February 2026
Orbit: 1513 x 1687 km, 47.2° (Epoch: 11 March)

Event Time Altitude Azimuth Distance (km) Brightness Sun altitude
Rises 20:12:14 0° 253° (WSW) 4,938 12.3 -32.7°
Reaches altitude 10° 20:15:24 10° 252° (WSW) 3,950 11.6 -33.2°
Maximum altitude 20:25:34 79° 168° (SSE) 1,698 8.9 -34.6°
Enters shadow 20:26:09 77° 133° (SE) 1,708 8.9 -34.7°
